Find Landsat 9

NORAD ID: 49260 Int'l Des: 2021-088 Owner: USGS/GSFC Country: US operational
LEOCIRCULARRETROGRADESSO

Current View

Loading 3D Globe...

About Landsat 9

Description loading...

Upcoming Passes

Passes for default location (London). Set your location on the main map for personalized predictions.

Altitude History

Loading altitude history...

Two-Line Element Set

1 49260U 21088A 26151.16642163 .00000488 00000-0 11826-3 0 9995
2 49260 98.1855 221.5716 0001483 95.4815 264.6552 14.57121688248525
Epoch: May 31, 2026 • Age: 11 hours

Current Status

Altitude 728.7 km
Velocity 7.49 km/s
Sub-Earth Point -66.53°S, 123.84°E
Launch Date Sep 27, 2021
Age 4.6 years
Type earth observation

Technical Details

Classification Payload
Mass 2710.00 kg
Dry Mass 2390.00 kg
Total Mass 2710.00 kg
Length 5.80 m
Diameter 2.50 m
Span 13.00 m
Shape Cyl hex + pan
Manufacturer NGISGA
Bus Type Leostar-3
Phase Status In Orbit
Owner/State USGS/GSFC/US

Most Searched